Location: Favalello
(42.2939°N, 9.2706°E)
Time: 06:34:49
(UTC+00:00)

Atlas Centaur 2 - Pass Details

Date: 06 December 2019
Orbit: 459 x 1310 km, 30.4° (Epoch: 19 January)

Event Time Altitude Azimuth Distance (km) Brightness Sun altitude
Rises 16:17:57 0° 250° (WSW) 3,832 8.2 -5.3°
Reaches altitude 10° 16:20:47 10° 242° (WSW) 2,992 6.9 -5.8°
Maximum altitude 16:27:29 35° 180° (S) 1,898 4.3 -6.9°
Drops below altitude 10° 16:34:54 10° 120° (ESE) 3,313 4.9 -8.2°
Sets 16:38:12 0° 112° (ESE) 4,291 5.4 -8.7°
